Vorticity
nan nan nan nan nan nan nan nan nan nan nan nan nan nan nan nan nan nan nan nan nan nan nan nan nan nan nan nan nan nan nan nan nan nan nan nan nan nan nan nan nan nan nan nan
nan 10 3 -4 9 10 7 15 4 10 7 -1 22 22 11 6 10 4 8 9 5 8 6 6 7 5 5 7 5 5 9 6 4 2 5 8 11 9 9 7 6 8 9 nan
nan 10 9 10 3 7 14 14 16 4 -3 4 4 13 17 6 0 15 11 5 11 10 3 4 7 6 6 7 6 7 6 8 1 2 12 6 5 7 10 9 9 9 5 nan
nan 15 16 6 5 7 14 -3 18 13 1 8 3 5 11 20 6 1 10 17 9 -1 8 15 5 4 7 8 8 8 6 7 8 6 7 9 4 7 7 7 11 10 8 nan
nan 10 12 6 5 5 4 17 18 -3 4 8 7 -1 11 16 11 4 8 12 12 6 10 1 6 6 11 7 8 7 9 6 7 5 8 7 6 11 9 9 7 7 10 nan
nan 13 9 8 11 9 1 9 -5 16 12 9 12 5 13 7 11 6 11 10 -6 8 15 7 4 6 11 11 7 8 8 6 6 8 8 2 7 11 9 12 8 8 10 nan
nan 12 9 13 9 5 5 3 2 9 11 13 13 10 19 16 13 15 6 5 9 9 -1 9 11 15 7 10 8 7 8 7 8 7 7 7 8 5 7 8 8 6 10 nan
nan 8 10 10 8 4 11 0 -1 3 6 9 6 10 24 29 13 17 10 5 3 7 8 4 12 9 9 4 8 7 9 8 8 7 7 7 10 5 10 4 10 13 8 nan
nan 9 18 5 7 7 6 6 1 2 7 10 5 7 13 17 15 16 16 9 7 7 6 7 8 4 6 5 10 8 9 8 9 8 8 8 5 6 10 11 3 11 12 nan
nan 22 12 7 9 4 9 15 9 -0 3 9 8 8 11 15 11 14 15 12 10 6 -0 13 13 8 8 12 8 11 7 9 8 7 7 8 8 10 5 7 8 4 6 nan
nan 16 7 13 9 7 7 3 5 9 12 5 0 3 16 22 10 10 16 14 10 12 7 8 5 12 9 8 14 14 3 8 7 7 8 8 8 9 8 7 8 6 9 nan
nan 8 16 9 13 12 7 11 5 8 4 -4 10 11 9 16 20 15 13 11 14 12 14 11 10 8 7 8 9 8 11 9 8 9 12 6 7 9 7 7 8 9 10 nan
nan 15 7 15 13 6 15 10 7 2 9 8 10 23 12 10 10 14 14 15 14 12 11 4 8 15 15 11 10 9 9 12 15 11 8 7 11 7 6 8 8 8 9 nan
nan 5 6 6 4 20 18 4 11 12 5 7 12 8 13 11 8 9 11 12 16 18 10 6 4 7 10 10 9 13 10 8 5 9 12 17 11 7 9 10 9 7 7 nan
nan 8 8 8 13 6 19 24 9 5 3 9 7 5 26 14 11 8 8 9 6 12 15 12 11 10 6 6 6 5 7 8 9 6 9 16 11 11 12 11 11 11 11 nan
nan 7 12 15 11 9 14 12 18 14 5 6 10 14 5 22 17 11 9 9 7 6 13 13 12 10 8 6 5 5 8 10 9 12 12 15 16 18 16 11 13 14 11 nan
nan 10 13 16 18 13 13 18 13 11 18 15 10 11 20 14 3 9 9 9 11 10 8 7 7 16 22 12 8 10 12 11 9 11 10 11 12 12 11 15 17 14 10 nan
nan 12 6 6 15 17 7 14 17 12 17 21 13 9 17 14 17 12 8 10 8 10 12 11 7 11 17 19 13 9 10 12 15 14 10 8 6 4 6 8 8 10 12 nan
nan 15 8 20 5 -8 7 6 5 7 9 10 12 18 17 9 5 8 14 15 10 9 8 9 10 9 11 14 15 13 13 11 9 8 12 13 13 11 9 6 7 7 12 nan
nan 15 15 9 10 22 2 -5 6 23 10 -4 13 23 13 4 3 14 14 12 13 10 12 10 10 9 9 13 16 12 9 9 9 11 10 10 12 11 13 12 10 10 12 nan
nan 9 13 11 18 17 19 9 10 17 1 9 15 21 8 4 15 25 11 8 13 12 10 10 9 8 10 12 11 9 9 8 8 11 13 13 13 11 11 11 11 11 10 nan
nan 15 18 9 7 2 14 18 19 14 8 7 18 21 10 11 16 9 10 12 9 10 7 7 9 10 8 9 9 8 9 8 8 8 8 12 14 13 10 12 11 10 6 nan
nan 7 6 12 16 13 10 13 9 12 14 11 15 15 17 10 13 9 10 8 8 9 7 6 7 7 8 10 9 9 7 9 9 8 9 8 10 12 12 10 9 10 9 nan
nan 11 8 12 13 5 8 6 5 10 11 15 20 16 14 13 11 9 8 8 12 10 8 8 8 9 9 11 12 10 10 9 10 9 10 10 9 10 13 12 9 9 15 nan
nan 12 10 14 12 9 7 3 7 10 10 12 14 15 18 17 10 10 9 8 8 6 7 10 12 9 10 11 11 9 12 12 11 10 9 11 9 5 7 8 15 16 10 nan
nan nan nan nan nan nan nan nan nan nan nan nan nan nan nan nan nan nan nan nan nan nan nan nan nan nan nan nan nan nan nan nan nan nan nan nan nan nan nan nan nan nan nan nan
CAPE
0 0 0 76 106 5 3 35 85 104 242 63 59 49 0 134 191 89 64 86 142 119 118 71 117 152 266 458 606 1270 1456 1248 1232 1129 1356 1221 2012 1435 1612 1725 1619 1762 1911 1980
0 0 0 45 113 21 0 180 88 191 181 26 34 107 49 71 193 122 88 104 162 122 103 143 108 165 193 424 703 1363 1435 1376 1799 1147 1846 1377 1125 1895 1572 1630 1568 1693 2123 2091
0 0 0 17 87 0 1 179 237 257 106 103 13 97 27 45 181 257 102 96 82 147 107 124 323 167 240 310 597 815 1794 1348 1628 1969 1324 1645 1841 2301 1379 1755 1361 1705 1729 1907
0 0 0 15 62 32 10 245 164 192 139 117 76 62 10 98 116 80 119 91 111 125 119 161 414 377 229 389 473 1056 1119 1833 1082 1891 1969 1678 909 1239 1272 1166 1248 2265 1593 1432
0 0 0 1 68 37 14 8 305 211 126 101 53 94 41 26 19 22 182 140 119 197 185 215 240 457 418 466 485 704 1128 1514 1610 1457 1468 1378 1918 1135 990 1533 2285 1790 1778 1656
3 0 0 0 84 10 1 2 178 182 121 128 66 62 120 206 56 63 100 245 107 117 204 182 412 335 344 331 349 624 1063 1447 1501 1437 1390 1451 1773 1437 1389 1198 1453 1329 1684 1465
1 0 0 0 43 0 0 66 223 160 137 153 103 120 53 133 87 109 125 150 257 161 168 204 415 221 476 448 269 507 1176 1446 1314 1301 1165 1198 1406 1208 1277 1508 1305 1317 1093 1342
0 0 0 0 16 2 8 114 207 148 113 100 144 158 155 61 122 166 129 126 175 282 261 254 274 308 406 399 387 370 1103 1545 1399 1149 1165 1221 1259 934 1087 1079 993 861 1399 930
8 2 0 0 0 3 1 83 207 31 63 174 165 230 394 282 274 401 291 157 119 318 225 283 412 428 442 551 584 614 1389 1543 1345 1106 1297 1415 1315 1068 1182 1395 1537 2066 1501 1653
30 32 10 0 0 0 0 26 67 142 78 26 144 98 140 456 496 556 605 212 222 298 340 319 244 288 785 494 653 713 1110 1400 1278 962 1124 1120 938 1107 1069 1236 1134 1578 525 1994
3 3 33 0 0 0 0 0 10 74 108 64 90 273 318 615 520 577 641 698 392 392 534 531 282 498 664 776 975 856 1043 1538 1456 1176 1222 1008 732 684 986 1087 1106 1267 1404 1589
0 20 1 20 2 0 0 0 0 7 32 23 2 88 57 709 797 842 749 699 826 772 450 458 383 756 1134 1253 1403 1366 1167 1306 1556 1931 2284 1375 1218 814 562 776 945 1123 1425 1497
66 3 77 29 25 0 0 0 0 1 18 47 60 494 908 1030 1068 1069 1023 968 1024 1084 801 580 514 1250 1342 1203 1376 1358 1207 1523 1607 1843 1412 1332 2240 1203 831 645 677 978 1540 1662
3 13 78 65 19 2 30 0 11 7 32 26 31 959 1162 1316 1228 1432 1372 1195 1215 1294 1377 855 743 854 1060 1299 1558 1574 1299 1464 1379 1207 1217 1882 1823 1486 1070 1190 751 814 1154 1433
33 64 24 3 7 56 26 3 0 15 11 82 85 119 659 1267 1288 1244 1249 1398 1557 1564 1359 1226 1137 1220 1221 1236 908 362 253 223 359 335 922 975 1885 2268 1525 1443 1214 973 1088 1204
104 99 62 129 1 5 52 42 31 19 12 3 11 20 255 1129 1373 1212 1121 1166 1193 1017 862 1422 1375 1258 988 1160 674 355 301 545 381 366 476 701 1210 824 1444 1650 1345 1610 1169 1269
238 216 168 165 78 25 58 41 58 65 53 42 181 737 126 1284 1434 1080 820 785 731 798 438 338 652 942 1342 977 737 747 618 585 469 348 301 140 291 40 85 136 683 1067 975 1045
307 284 270 284 236 149 126 113 95 143 286 306 316 311 808 1215 1345 950 884 885 762 514 223 86 3 95 408 669 694 436 405 335 576 342 232 106 26 3 2 0 1 17 223 818
215 354 254 244 434 33 0 112 134 213 511 510 572 720 1405 1016 898 688 633 796 621 371 25 7 4 3 1 18 64 99 278 96 4 2 4 28 98 110 66 5 0 3 163 66
169 216 320 292 265 5 1 37 13 64 253 81 871 1047 891 679 710 691 565 349 208 93 6 5 5 5 3 4 9 6 5 4 3 2 1 0 2 2 70 166 168 253 73 7
23 46 196 199 239 245 103 5 34 67 268 190 724 1098 782 686 924 860 323 192 4 7 4 4 2 2 4 3 2 1 0 1 1 0 0 4 11 17 23 70 105 8 0 0
422 438 252 238 11 164 106 190 298 385 314 220 672 1039 918 330 786 451 83 33 5 5 1 0 0 1 0 0 0 3 0 0 0 0 0 0 7 4 11 44 26 9 1 0
19 162 697 392 501 304 200 254 188 340 498 602 532 1053 1034 779 446 119 65 7 3 0 0 0 0 0 0 0 0 0 8 17 14 0 0 0 0 8 24 27 25 3 5 10
190 238 124 444 399 321 280 213 269 294 482 726 746 776 903 600 343 119 44 13 20 10 3 0 0 0 0 0 0 0 0 2 12 6 9 6 4 1 0 3 4 6 8 5
452 500 120 311 628 410 304 300 230 321 446 644 845 742 608 567 307 31 11 8 2 0 0 0 0 0 0 0 0 0 3 5 5 3 0 0 0 0 0 0 0 0 0 0
341 195 390 416 788 696 661 303 159 223 367 540 662 674 526 457 272 114 4 9 1 0 0 0 0 0 0 0 0 0 1 0 0 0 0 0 0 0 0 0 0 0 0 0